User: anonymous   Login
Location: The Saddle
(36.8333°N, 80.3417°W)
Time: 00:30:42
(UTC-04:00)
Language:

SEEDS - Orbit

View from above orbital plane
View from above orbital plane
View from above satellite
View from above satellite

Ground track
Ground track

The orbit is defined by the following mean orbital elements,

1 32791U          26110.71281213 +.00000000 +00000-0 +48989-3 0 00001
2 32791  97.7536 105.9600 0004633 125.8742 234.2929 15.30755060    00
Epoch (UTC): 20 April 2026 17:06:26
Eccentricity: 0.0004633
inclination: 97.7536°
perigee height: 470 km
apogee height: 477 km
right ascension of ascending node: 105.9600°
argument of perigee: 125.8742°
revolutions per day: 15.30755060
mean anomaly at epoch: 234.2929°

The dashed part of the orbit path shows where the satellite is in the earth's shadow,  

DLR